TimeCDT,TemperatureF,Dew PointF,Humidity,Sea Level PressureIn,VisibilityMPH,Wind Direction,Wind SpeedMPH,Gust SpeedMPH,PrecipitationIn,Events,Conditions,WindDirDegrees,DateUTC
12:52 AM,48.9,36.0,61,30.09,10.0,Calm,Calm,-,N/A,,Scattered Clouds,0,2011-10-25 05:52:00
1:52 AM,50.0,37.0,61,30.09,10.0,SSW,4.6,-,N/A,,Mostly Cloudy,210,2011-10-25 06:52:00
2:52 AM,51.1,37.0,59,30.06,10.0,SSW,6.9,-,N/A,,Mostly Cloudy,210,2011-10-25 07:52:00
3:52 AM,52.0,37.9,59,30.04,10.0,SSW,9.2,-,N/A,,Mostly Cloudy,210,2011-10-25 08:52:00
4:52 AM,52.0,41.0,66,30.04,10.0,Calm,Calm,-,0.00,,Overcast,0,2011-10-25 09:52:00
5:52 AM,50.0,44.1,80,30.02,10.0,East,5.8,-,0.01,Rain,Light Rain,100,2011-10-25 10:52:00
6:22 AM,50.0,44.6,82,29.97,6.0,East,9.2,-,0.03,Rain-Thunderstorm,Light Thunderstorms and Rain,100,2011-10-25 11:22:00
6:39 AM,51.8,46.4,82,29.98,10.0,East,4.6,-,0.04,Rain,Light Rain,90,2011-10-25 11:39:00
6:52 AM,52.0,48.0,86,29.99,10.0,East,9.2,-,0.04,,Mostly Cloudy,90,2011-10-25 11:52:00
7:52 AM,53.1,46.9,80,29.98,10.0,ESE,6.9,-,N/A,,Mostly Cloudy,120,2011-10-25 12:52:00
8:52 AM,54.0,48.0,80,29.98,10.0,East,3.5,-,0.00,Rain,Light Rain,80,2011-10-25 13:52:00
9:52 AM,55.9,45.0,67,29.95,10.0,WSW,6.9,-,0.00,Rain,Light Rain,240,2011-10-25 14:52:00
10:52 AM,57.9,46.9,67,29.92,10.0,SW,5.8,-,0.00,,Mostly Cloudy,230,2011-10-25 15:52:00
11:52 AM,59.0,48.0,67,29.88,10.0,SSW,9.2,-,N/A,,Mostly Cloudy,210,2011-10-25 16:52:00
12:52 PM,60.1,48.9,67,29.85,10.0,SW,5.8,-,N/A,,Mostly Cloudy,220,2011-10-25 17:52:00
1:52 PM,64.0,50.0,60,29.80,10.0,Calm,Calm,-,N/A,,Mostly Cloudy,0,2011-10-25 18:52:00
2:52 PM,59.0,48.9,69,29.80,10.0,NE,6.9,-,N/A,,Overcast,50,2011-10-25 19:52:00
3:52 PM,55.4,50.0,82,29.78,10.0,Variable,4.6,-,N/A,,Overcast,0,2011-10-25 20:52:00
4:52 PM,55.9,48.9,77,29.78,10.0,North,6.9,-,N/A,,Mostly Cloudy,10,2011-10-25 21:52:00
5:52 PM,54.0,50.0,86,29.79,10.0,North,8.1,-,N/A,,Overcast,10,2011-10-25 22:52:00
6:48 PM,51.8,48.2,88,29.81,10.0,North,16.1,21.9,N/A,,Overcast,360,2011-10-25 23:48:00
6:52 PM,52.0,48.9,89,29.82,10.0,North,11.5,21.9,N/A,,Overcast,360,2011-10-25 23:52:00
7:08 PM,51.8,48.2,88,29.81,10.0,North,16.1,23.0,N/A,,Overcast,10,2011-10-26 00:08:00
7:52 PM,51.1,48.0,89,29.81,10.0,NNE,10.4,19.6,0.00,,Overcast,20,2011-10-26 00:52:00
8:52 PM,51.1,48.0,89,29.81,9.0,NNE,15.0,-,N/A,,Overcast,20,2011-10-26 01:52:00
9:52 PM,50.0,46.9,89,29.83,9.0,NNE,17.3,21.9,N/A,,Overcast,20,2011-10-26 02:52:00
10:52 PM,50.0,46.9,89,29.84,10.0,NNE,11.5,23.0,N/A,,Overcast,20,2011-10-26 03:52:00
11:52 PM,48.9,46.0,90,29.81,10.0,NNE,15.0,21.9,N/A,,Overcast,20,2011-10-26 04:52:00